Marathon, FL

6:57 AM EDT on June 28, 2017 (GMT -0400)
Florida Keys Marathon

Weather History for KMTH - April, 2014

Change the Weather History Date:

Tuesday, April 15, 2014

  Actual Average Record
Temperature  
Mean Temperature 84 °F 77 °F  
Max Temperature 89 °F 83 °F 91 °F (2013)
Min Temperature 78 °F 72 °F 62 °F (1998)
Degree Days  
Heating Degree Days 0 0  
Month to date heating degree days 0 0  
Since 1 July heating degree days 35 81  
Cooling Degree Days 19 12  
Month to date cooling degree days 208 174  
Year to date cooling degree days 1034 839  
Growing Degree Days 33 (Base 50)    
Moisture  
Dew Point 74 °F    
Average Humidity 75    
Maximum Humidity 85    
Minimum Humidity 65    
Precipitation  
Precipitation 0.00 in 0.07 in 0.21 in (2007)
Month to date precipitation 0.13 1.05  
Year to date precipitation 5.39 7.26  
Snow  
Snow 0.00 in - - ()
Month to date snowfall 0.0  
Since 1 July snowfall 0.0  
Snow Depth 0.00 in    
Sea Level Pressure  
Sea Level Pressure 29.91 in    
Wind  
Wind Speed 7 mph (South)    
Max Wind Speed 13 mph    
Max Gust Speed 18 mph    
Visibility 10 miles    
Events      
T = Trace of Precipitation, MM = Missing Value Source: NWS Daily Summary

Daily Weather History Graph

Daily Weather History Graph

Search for Another Location

Airport or City:

Trip Planner

Search our weather history database for the weather conditions in past years. The results will help you decide how hot, cold, wet, or windy it might be!

Date:

Astronomy

Apr. 15, 2014 Rise Set
Actual Time 7:02 AM EDT 7:46 PM EDT
Civil Twilight 6:38 AM EDT 8:09 PM EDT
Nautical Twilight 6:11 AM EDT 8:37 PM EDT
Astronomical Twilight 5:43 AM EDT 9:05 PM EDT
Moon 8:21 PM EDT (4/15) 7:10 AM EDT (4/15)
Length of Visible Light 13h 30m
Length of Day
12h 44m
Full, 100% of the Moon is Illuminated
Apr 15
Full
Apr 22
Last Quarter
Apr 29
New
May 6
First Quarter
May 14
Full

Hourly Weather History & Observations

Time (EDT) Temp. Heat Index Dew Point Humidity Pressure Visibility Wind Dir Wind Speed Gust Speed Precip Events Conditions
12:53 AM 78.1 °F - 73.9 °F 87% 29.91 in 10.0 mi SE 8.1 mph - N/A   Partly Cloudy
1:53 AM 78.1 °F - 73.9 °F 87% 29.90 in 10.0 mi SE 10.4 mph - N/A   Clear
2:53 AM 79.0 °F - 73.9 °F 84% 29.89 in 10.0 mi SE 8.1 mph - N/A   Scattered Clouds
3:53 AM 79.0 °F - 73.9 °F 84% 29.89 in 10.0 mi SSE 6.9 mph - N/A   Partly Cloudy
4:53 AM 79.0 °F - 73.9 °F 84% 29.90 in 10.0 mi SSE 6.9 mph - N/A   Mostly Cloudy
5:53 AM 79.0 °F - 73.9 °F 84% 29.90 in 10.0 mi SSE 6.9 mph - N/A   Mostly Cloudy
6:53 AM 78.1 °F - 73.9 °F 87% 29.91 in 10.0 mi SSE 6.9 mph - N/A   Partly Cloudy
7:53 AM 79.0 °F - 73.9 °F 84% 29.92 in 10.0 mi SSE 8.1 mph - N/A   Clear
8:53 AM 81.0 °F 86.2 °F 73.9 °F 79% 29.93 in 10.0 mi SSE 8.1 mph - N/A   Partly Cloudy
9:53 AM 82.9 °F 89.4 °F 73.9 °F 74% 29.93 in 10.0 mi SSE 8.1 mph - N/A   Clear
10:53 AM 82.9 °F 89.4 °F 73.9 °F 74% 29.95 in 10.0 mi SSE 12.7 mph - N/A   Clear
11:53 AM 84.9 °F 93.3 °F 75.0 °F 72% 29.94 in 10.0 mi SSE 10.4 mph - N/A   Clear
12:53 PM 86.0 °F 95.1 °F 75.0 °F 70% 29.93 in 10.0 mi South 9.2 mph - N/A   Clear
1:53 PM 88.0 °F 97.5 °F 75.0 °F 65% 29.93 in 10.0 mi South 8.1 mph - N/A   Partly Cloudy
2:53 PM 87.1 °F 96.3 °F 75.0 °F 67% 29.91 in 10.0 mi South 8.1 mph - N/A   Partly Cloudy
3:53 PM 84.9 °F 92.1 °F 73.9 °F 69% 29.89 in 10.0 mi SW 9.2 mph - N/A   Partly Cloudy
4:22 PM 84.9 °F 93.3 °F 75.0 °F 72% 29.88 in 10.0 mi SW 8.1 mph - N/A   Mostly Cloudy
4:43 PM 86.0 °F 95.1 °F 75.0 °F 70% 29.88 in 10.0 mi SW 6.9 mph - N/A   Scattered Clouds
4:53 PM 86.0 °F 93.0 °F 73.0 °F 65% 29.88 in 10.0 mi Variable 6.9 mph - N/A   Partly Cloudy
5:53 PM 84.0 °F 90.2 °F 73.0 °F 69% 29.88 in 8.0 mi WSW 5.8 mph - N/A   Clear
6:53 PM 82.0 °F 88.6 °F 75.0 °F 79% 29.89 in 6.0 mi NW 6.9 mph 17.3 mph N/A   Haze
7:53 PM 80.1 °F 84.2 °F 73.0 °F 79% 29.91 in 9.0 mi NW 8.1 mph - N/A   Mostly Cloudy
8:53 PM 80.1 °F 84.5 °F 73.9 °F 81% 29.93 in 10.0 mi WNW 6.9 mph - N/A   Scattered Clouds
9:53 PM 79.0 °F - 73.9 °F 84% 29.95 in 10.0 mi WNW 3.5 mph - N/A   Partly Cloudy
10:53 PM 79.0 °F - 73.0 °F 82% 29.94 in 10.0 mi Calm Calm - N/A   Clear
11:53 PM 78.1 °F - 73.0 °F 84% 29.94 in 10.0 mi Calm Calm - N/A   Clear